Flag for Kazakhstan Weather past 2 weeks in Almaty, Kazakhstan

Now
50 °F

Passing clouds.


Feels Like: 49 °F
Forecast: 43 / 69 °F
Wind: 3 mph from Southwest

Location: Almaty Airport

Current Time: Apr 29, 2015 at 2:13:18 AM

Latest Report: Apr 29, 2015 at 1:30 AM


Visibility: N/A

Pressure: 30.15 "Hg

Humidity: 76%

Dew point: 43 °F

Location of AlmatyLocation

Historic Weather in Almaty — Graph

°F

Almaty temperature yesterday

Maximum temperature yesterday: 68 °F (at 5:00 PM)
Minimum temperature yesterday: 45 °F (at 5:00 AM)
Average temperature yesterday: 57 °F

Past Weeks' High & Low Weather Summary

 TemperatureHumidityPressure
High90 °F (Apr 24, 1:30 PM)94% (Apr 16, 4:00 AM)30.45 "Hg (Apr 16, 4:00 AM)
Low43 °F (Apr 16, 11:30 PM)9% (Apr 24, 1:30 PM)29.65 "Hg (Apr 26, 6:00 AM)
Average60 °F56%30.03 "Hg
* Reported Midnight between Apr 13 and Apr 14 — Apr 29 12:30 AM, Almaty, Weather by CustomWeather, © 2015

Note: Actual official high and low records may vary slightly from our data, if they occured in-between our weather recording intervals... More about our weather records

Advertising

Almaty weather history for previous 24 hours

 ConditionsComfort  
Time TempWeatherWind HumidityBarometerVisibility
12:30 AM
Wed, Apr 29
50 °FPassing clouds.3 mph76%30.15 "HgN/A
12:00 AM52 °FPassing clouds.3 mph72%30.18 "HgN/A
11:30 PM
Tue, Apr 28
52 °FPassing clouds.1 mph72%30.18 "HgN/A
11:00 PM52 °FPassing clouds.3 mph72%30.18 "HgN/A
10:30 PM52 °FPassing clouds.3 mph77%30.18 "HgN/A
10:00 PM54 °FPassing clouds.3 mph72%30.18 "HgN/A
9:30 PM54 °FPassing clouds.3 mph72%30.18 "HgN/A
9:00 PM57 °FPassing clouds.3 mph59%30.18 "HgN/A
8:30 PM57 °FPassing clouds.3 mph59%30.18 "HgN/A
8:00 PM59 °FPassing clouds.6 mph55%30.18 "HgN/A
7:30 PM61 °FPassing clouds.6 mph55%30.18 "HgN/A
7:00 PM63 °FPassing clouds.8 mph49%30.18 "HgN/A
6:30 PM64 °FPassing clouds.10 mph46%30.18 "HgN/A
6:00 PM66 °FScattered clouds.13 mph46%30.18 "HgN/A
5:30 PM68 °FScattered clouds.10 mph43%30.18 "HgN/A
5:00 PM68 °FScattered clouds.10 mph46%30.18 "HgN/A
4:30 PM66 °FScattered clouds.10 mph46%30.18 "HgN/A
4:00 PM66 °FScattered clouds.10 mph43%30.18 "HgN/A
3:30 PM66 °FScattered clouds.13 mph43%30.21 "HgN/A
3:00 PM66 °FScattered clouds.10 mph37%30.21 "HgN/A
2:30 PM66 °FScattered clouds.13 mph32%30.21 "HgN/A
2:00 PM66 °FScattered clouds.10 mph46%30.24 "HgN/A
1:30 PM64 °FScattered clouds.13 mph49%30.24 "HgN/A
1:00 PM64 °FPassing clouds.13 mph46%30.27 "HgN/A
12:30 PM64 °FPassing clouds.13 mph49%30.27 "HgN/A
12:00 PM64 °FPassing clouds.10 mph40%30.27 "HgN/A
11:30 AM64 °FPassing clouds.13 mph49%30.30 "HgN/A
11:00 AM63 °FClear.10 mph45%30.30 "HgN/A
10:30 AM61 °FClear.8 mph52%30.33 "HgN/A
10:00 AM61 °FClear.8 mph59%30.33 "HgN/A
9:30 AM59 °FClear.6 mph59%30.33 "HgN/A
9:00 AM55 °FClear.3 mph67%30.33 "HgN/A
8:30 AM54 °FClear.3 mph77%30.33 "HgN/A
8:00 AM54 °FClear.1 mph72%30.36 "HgN/A
7:30 AM52 °FClear.No wind77%30.36 "HgN/A
7:00 AM46 °FClear.3 mph87%30.36 "HgN/A
6:30 AM45 °FScattered clouds.1 mph93%30.36 "HgN/A
6:00 AM45 °FScattered clouds.1 mph87%30.36 "HgN/A
5:30 AM46 °FPassing clouds.1 mph82%30.36 "HgN/A
5:00 AM45 °FPassing clouds.1 mph87%30.36 "HgN/A
4:30 AM46 °FPassing clouds.6 mph87%30.36 "HgN/A
4:00 AM46 °FPassing clouds.6 mph87%30.36 "HgN/A
3:30 AM48 °FPassing clouds.3 mph82%30.36 "HgN/A
3:00 AM48 °FPassing clouds.1 mph87%30.36 "HgN/A
2:30 AM50 °FPassing clouds.6 mph76%30.39 "HgN/A
2:00 AM50 °FPartly cloudy.3 mph76%30.39 "HgN/A
Weather by CustomWeather, © 2015

See weather overviewHow to use our weather pages